Regional Weather Roundup
Issued by NWS

Home | Current Version | Previous Version | Text Only | Print | Product List | Glossary Off
Versions: 1 2 3 4 5 6 7 8 9 10 11 12 13 14 15 16 17 18 19 20 21 22 23 24 25 26 27

000
ASUS45 KBOU 210707
RWRCO

WEATHER ROUNDUP FOR COLORADO
NATIONAL WEATHER SERVICE DENVER/BOULDER CO
1200 AM MST SAT JAN 21 2017

NOTE: "FAIR" INDICATES FEW OR NO CLOUDS BELOW 12000 FEET WITH NO
SIGNIFICANT WEATHER AND/OR OBSTRUCTIONS TO VISIBILITY.

COZ001>005-013-030-031-210800-
...NORTHWEST COLORADO...

CITY           SKY/WX    TMP DP  RH WIND       PRES   REMARKS
CRAIG          CLOUDY    19  14  81 CALM      29.44F
HAYDEN         MOCLDY    19  12  73 SE9       29.44F WCI   9
MEEKER         CLOUDY    24  19  81 NE5       29.41F WCI  18
MOUNT WERNER   NOT AVBL
STEAMBOAT SPGS CLOUDY    18  16  90 CALM      29.44F
WALDEN           N/A     12   7  79 E5        29.44F WCI   4
$$

COZ006>008-011-210800-
...WEST CENTRAL VALLEYS...

CITY           SKY/WX    TMP DP  RH WIND       PRES   REMARKS
GRAND JUNCTION CLOUDY    35  29  78 E10       29.42F WCI  27
MONTROSE       FAIR      32  19  58 E14       29.46F WCI  22
EAGLE          CLOUDY    16  12  84 E8        29.50F WCI   5
RIFLE          MOCLDY    28  26  92 CALM      29.45F
DELTA          CLOUDY    36  28  73 N14       29.46F
NUCLA          CLOUDY    32  28  86 CALM      29.47F
$$

COZ017>023-064>068-210800-
...SOUTHWEST COLORADO...

CITY           SKY/WX    TMP DP  RH WIND       PRES   REMARKS
DURANGO        LGT SNOW  27  24  89 E6        29.50F VSB 3/4 WCI  20
CORTEZ         LGT SNOW  31  31 100 NW3       29.46F FOG
PAGOSA SPRINGS LGT SNOW  25  25  99 N3        29.52F
TELLURIDE      NOT AVBL
WOLF CREEK PAS CLOUDY    10  10 100 S17G28    29.51F WCI  -7
$$

COZ009-010-012-014-032>034-037-058>063-210800-
...CENTRAL COLORADO...

CITY           SKY/WX    TMP DP  RH WIND       PRES   REMARKS
ASPEN          CLOUDY    17  13  84 S3        29.44F
BUENA VISTA    FAIR       9   4  80 CALM      29.48F
COPPER MTN     MOCLDY    14   5  67 MISG      29.42F
BERTHOUD PASS  NOT AVBL
COTTONWOOD PAS FAIR      21   9  58 S3        29.45F
GUNNISON       FAIR      11   7  84 CALM      29.52F
KREMMLING      FOG       21  18  86 CALM      29.49S VSB 1/4
LEADVILLE      MOCLDY     6   1  80 NE7       29.43F WCI  -6
MONARCH PASS     N/A      9   5  85 SW16      29.53F WCI  -9
SALIDA         FAIR      28  13  54 SE13G20   29.55F WCI  17
SUNLIGHT       FOG       12  10  92 MISG      29.46F VSB 1/2
WILKERSON PASS FAIR      10   7  85 SW16G26   29.42F WCI  -7
$$

COZ069>075-210800-
...SAN LUIS VALLEY/SANGRE DE CRISTO MOUNTAINS...

CITY           SKY/WX    TMP DP  RH WIND       PRES   REMARKS
ALAMOSA        CLOUDY    23  18  81 CALM      29.51F
LA VETA PASS   FAIR      16  12  86 NE28G39   29.44R WCI  -4
SAGUACHE       MOCLDY    12  10  92 NE3       29.54F
$$

COZ035-036-038>040-210800-
...NORTHERN COLORADO FRONT RANGE...

CITY           SKY/WX    TMP DP  RH WIND       PRES   REMARKS
DENVER INTL AP FAIR      28  23  81 S9        29.41S WCI  19
DMNS CITY PARK   N/A     31  25  80 SE7       29.41F WCI  24
AURORA         PTCLDY    28  21  74 S9        29.41F WCI  19
FRONT RANGE AP FAIR      32  28  86 SE8       29.42F WCI  25
ERIE MUNI ARPT FAIR      29  24  83 SW3       29.41S
BOULDER MUN AP FAIR      32  19  59 NE3       29.40F
CENTENNIAL     FAIR      30  16  56 SW9       29.41F WCI  22
BROOMFIELD     FAIR      32  18  55 SW3       29.41S
FORT COLLINS   FAIR      27  21  80 NE7       29.43F WCI  19
LONGMONT       FAIR      30  26  84 CALM      29.44R
$$

COZ041-046-047-076>085-087-088-210800-
...PIKES PEAK/PALMER DIVIDE AND SOUTHERN FOOTHILLS...

CITY           SKY/WX    TMP DP  RH WIND       PRES   REMARKS
COLO. SPRINGS  MOCLDY    27  25  92 N14       29.43F FOG     WCI  16
A. F. ACADEMY  FOG       25  25 100 S6        29.42F VSB 1/2 WCI  18
SCHRIEVER AFB  NOT AVBL
ELLICOTT       FAIR     N/A N/A N/A CALM      29.42F
FALCON         MOCLDY    24  24  98 S6        29.44F WCI  17
FORT CARSON    PTCLDY    27  26  94 N6        29.42F WCI  21
LIMON          CLOUDY    20  18  92 CALM      29.45S FOG
MONUMENT HILL  FAIR      27  12  54 S6        29.43F WCI  20
TRINIDAD       FAIR      28  12  51 N8        29.46F WCI  20
$$

COZ042>045-048>051-090-091-210800-
...NORTHEAST COLORADO...

CITY           SKY/WX    TMP DP  RH WIND       PRES   REMARKS
GREELEY ARPT   FAIR      25  21  85 NW6       29.44R WCI  18
AKRON          FAIR      26  20  77 SW7       29.43F WCI  18
BURLINGTON     FAIR      29  26  89 NW7       29.45F WCI  22
WRAY           NOT AVBL
STERLING       FAIR      28  23  80 SW5       29.43S WCI  23
HOLYOKE        FAIR      34  32  93 SW6       29.43F WCI  29
FORT MORGAN    FAIR      29  26  90 SE5       29.43F WCI  24
$$

COZ086-089-092>099-210800-
...SOUTHEAST COLORADO...

CITY           SKY/WX    TMP DP  RH WIND       PRES   REMARKS
PUEBLO         FOG       27  25  92 W5        29.45S VSB 3/4 WCI  22
LA JUNTA       FOG       24  22  91 N6        29.45F VSB 1/2 WCI  17
LAMAR          FOG       25  23  92 N5        29.45F VSB 1/4 WCI  19
SPRINGFIELD      N/A     26  25  96 SW6       29.47F WCI  19
$$




USA.gov is the U.S. government's official web portal to all federal, state and local government web resources and services.